| time (UTC) | temp F | wind direction | speed knots | gust knots | rain 1hr in | rain 24hr in | rain mn in | humidity % | barometer mb |
| 20260505125041 | 53 | 127 | 4.3 | 6.1 | 0.00 | 0.00 | 0.00 | 60 | 1010.8 |
| 20260505124026 | 53 | 110 | 4.3 | 5.2 | 0.00 | 0.00 | 0.00 | 62 | 1010.8 |
| 20260505123024 | 53 | 113 | 4.3 | 7.0 | 0.00 | 0.00 | 0.00 | 68 | 1010.8 |
| 20260505122017 | 53 | 157 | 2.6 | 4.3 | 0.00 | 0.00 | 0.00 | 70 | 1010.7 |
| 20260505121042 | 53 | 164 | 3.5 | 4.3 | 0.00 | 0.00 | 0.00 | 71 | 1010.7 |
| 20260505120020 | 53 | 166 | 1.7 | 3.5 | 0.00 | 0.00 | 0.00 | 72 | 1010.8 |
| 20260505115019 | 53 | 162 | 1.7 | 3.5 | 0.00 | 0.00 | 0.00 | 69 | 1010.8 |
| 20260505114018 | 52 | 234 | 1.7 | 2.6 | 0.00 | 0.00 | 0.00 | 72 | 1010.7 |
| 20260505113016 | 52 | 248 | 0.0 | 1.7 | 0.00 | 0.00 | 0.00 | 72 | 1010.7 |
| 20260505112017 | 52 | 225 | 0.0 | 0.9 | 0.00 | 0.00 | 0.00 | 71 | 1010.6 |
| 20260505111054 | 52 | 87 | 0.9 | 3.5 | 0.00 | 0.00 | 0.00 | 73 | 1010.8 |
| 20260505102020 | 55 | 110 | 2.6 | 4.3 | 0.00 | 0.00 | 0.00 | 74 | 1010.8 |
| 20260505101024 | 55 | 106 | 1.7 | 2.6 | 0.00 | 0.00 | 0.00 | 70 | 1010.7 |
| 20260505100029 | 55 | 132 | 2.6 | 5.2 | 0.00 | 0.00 | 0.00 | 67 | 1010.8 |
| 20260505095017 | 55 | 132 | 2.6 | 3.5 | 0.00 | 0.00 | 0.00 | 68 | 1010.7 |
| 20260505094020 | 55 | 106 | 1.7 | 2.6 | 0.00 | 0.00 | 0.00 | 67 | 1010.7 |
| 20260505093025 | 55 | 151 | 1.7 | 2.6 | 0.00 | 0.00 | 0.00 | 67 | 1010.7 |
| 20260505092110 | 55 | 159 | 2.6 | 3.5 | 0.00 | 0.00 | 0.00 | 68 | 1010.8 |
| 20260505091036 | 55 | 172 | 1.7 | 2.6 | 0.00 | 0.00 | 0.00 | 69 | 1010.8 |
| 20260505090021 | 55 | 182 | 1.7 | 3.5 | 0.00 | 0.00 | 0.00 | 69 | 1010.8 |
| 20260505085025 | 55 | 195 | 1.7 | 3.5 | 0.00 | 0.00 | 0.00 | 68 | 1010.9 |
| 20260505084030 | 56 | 217 | 2.6 | 4.3 | 0.00 | 0.00 | 0.00 | 66 | 1010.9 |
| 20260505083017 | 56 | 157 | 2.6 | 3.5 | 0.00 | 0.00 | 0.00 | 59 | 1010.9 |
| 20260505082022 | 54 | 143 | 2.6 | 3.5 | 0.00 | 0.00 | 0.00 | 64 | 1010.8 |
| 20260505081027 | 54 | 145 | 1.7 | 2.6 | 0.00 | 0.00 | 0.00 | 67 | 1010.9 |
| 20260505080033 | 54 | 120 | 0.9 | 2.6 | 0.00 | 0.00 | 0.00 | 68 | 1011.0 |
| 20260505075018 | 54 | 151 | 3.5 | 4.3 | 0.00 | 0.00 | 0.00 | 67 | 1011.1 |
| 20260505074023 | 54 | 139 | 1.7 | 3.5 | 0.00 | 0.00 | 0.00 | 69 | 1011.2 |
| 20260505073028 | 54 | 126 | 2.6 | 2.6 | 0.00 | 0.00 | 0.00 | 68 | 1011.4 |
| 20260505072114 | 54 | 123 | 2.6 | 3.5 | 0.00 | 0.00 | 0.00 | 67 | 1011.5 |
| 20260505071019 | 55 | 114 | 4.3 | 5.2 | 0.00 | 0.00 | 0.00 | 67 | 1011.6 |
| 20260505070024 | 55 | 94 | 4.3 | 6.1 | 0.00 | 0.00 | 0.00 | 67 | 1011.6 |
| 20260505065028 | 55 | 111 | 4.3 | 5.2 | 0.00 | 0.00 | 0.00 | 65 | 1011.7 |
| 20260505064036 | 55 | 103 | 4.3 | 6.1 | 0.00 | 0.00 | 0.00 | 67 | 1011.8 |
| 20260505063020 | 56 | 112 | 4.3 | 5.2 | 0.00 | 0.00 | 0.00 | 64 | 1011.9 |
| 20260505062024 | 57 | 121 | 3.5 | 5.2 | 0.00 | 0.00 | 0.00 | 60 | 1011.9 |
| 20260505061028 | 58 | 85 | 2.6 | 3.5 | 0.00 | 0.00 | 0.00 | 55 | 1011.9 |
| 20260505060015 | 58 | 174 | 0.9 | 2.6 | 0.00 | 0.00 | 0.00 | 55 | 1011.7 |
| 20260505055020 | 58 | 206 | 0.9 | 2.6 | 0.00 | 0.00 | 0.00 | 56 | 1011.6 |
| 20260505054025 | 58 | 128 | 4.3 | 6.1 | 0.00 | 0.00 | 0.00 | 58 | 1011.6 |
| 20260505053030 | 58 | 150 | 3.5 | 5.2 | 0.00 | 0.00 | 0.00 | 58 | 1011.6 |
| 20260505052037 | 58 | 156 | 6.1 | 8.7 | 0.00 | 0.00 | 0.00 | 57 | 1011.5 |
| 20260505051021 | 58 | 161 | 7.0 | 8.7 | 0.00 | 0.00 | 0.00 | 59 | 1011.4 |
| 20260505041019 | 59 | 172 | 4.3 | 6.1 | 0.00 | 0.00 | 0.00 | 59 | 1010.4 |
| 20260505040018 | 59 | 150 | 6.1 | 8.7 | 0.00 | 0.00 | 0.00 | 61 | 1010.1 |
| 20260505035018 | 60 | 167 | 7.0 | 9.6 | 0.00 | 0.00 | 0.00 | 60 | 1010.0 |
| 20260505034015 | 61 | 158 | 6.1 | 9.6 | 0.00 | 0.00 | 0.00 | 58 | 1009.9 |
| 20260505033033 | 61 | 155 | 1.7 | 4.3 | 0.00 | 0.00 | 0.00 | 57 | 1009.9 |
| 20260505032019 | 61 | 169 | 3.5 | 5.2 | 0.00 | 0.00 | 0.00 | 56 | 1009.6 |
| 20260505031023 | 62 | 167 | 4.3 | 7.0 | 0.00 | 0.00 | 0.00 | 57 | 1009.3 |
| 20260505030027 | 62 | 173 | 4.3 | 7.0 | 0.00 | 0.00 | 0.00 | 57 | 1009.2 |
| 20260505025032 | 62 | 147 | 4.3 | 6.1 | 0.00 | 0.00 | 0.00 | 56 | 1009.1 |
| 20260505024019 | 63 | 191 | 2.6 | 3.5 | 0.00 | 0.00 | 0.00 | 50 | 1008.9 |
| 20260505023024 | 63 | 133 | 3.5 | 4.3 | 0.00 | 0.00 | 0.00 | 46 | 1008.9 |
| 20260505022029 | 63 | 142 | 4.3 | 6.1 | 0.00 | 0.00 | 0.00 | 43 | 1008.9 |
| 20260505021057 | 64 | 133 | 4.3 | 6.1 | 0.00 | 0.00 | 0.00 | 40 | 1008.7 |
| 20260505020020 | 64 | 121 | 7.0 | 7.8 | 0.00 | 0.00 | 0.00 | 40 | 1008.9 |
| 20260505015045 | 65 | 103 | 6.1 | 8.7 | 0.00 | 0.00 | 0.00 | 39 | 1008.7 |
| 20260505014030 | 66 | 128 | 5.2 | 7.0 | 0.00 | 0.00 | 0.00 | 37 | 1008.8 |
| 20260505013017 | 67 | 129 | 6.1 | 7.0 | 0.00 | 0.00 | 0.00 | 37 | 1008.9 |
| 20260505012021 | 66 | 128 | 7.0 | 7.8 | 0.00 | 0.00 | 0.00 | 38 | 1009.0 |
| 20260505011025 | 67 | 107 | 7.0 | 9.6 | 0.00 | 0.00 | 0.00 | 38 | 1009.0 |
| 20260505010030 | 68 | 114 | 7.0 | 10.4 | 0.00 | 0.00 | 0.00 | 40 | 1008.9 |
| 20260505005018 | 71 | 145 | 7.0 | 7.8 | 0.00 | 0.00 | 0.00 | 36 | 1008.7 |
| 20260505004022 | 74 | 136 | 3.5 | 4.3 | 0.00 | 0.00 | 0.00 | 27 | 1008.7 |
| 20260505003025 | 74 | 159 | 3.5 | 5.2 | 0.00 | 0.00 | 0.00 | 27 | 1008.7 |
| 20260505002030 | 72 | 135 | 3.5 | 6.1 | 0.00 | 0.00 | 0.00 | 28 | 1008.9 |
| 20260505001017 | 70 | 167 | 6.1 | 9.6 | 0.00 | 0.00 | 0.00 | 31 | 1009.0 |
| 20260505000021 | 71 | 174 | 2.6 | 4.3 | 0.00 | 0.00 | 0.00 | 29 | 1008.9 |
| 20260504235026 | 72 | 246 | 1.7 | 3.5 | 0.00 | 0.00 | 0.00 | 27 | 1008.9 |
| 20260504234051 | 72 | 285 | 1.7 | 2.6 | 0.00 | 0.00 | 0.00 | 28 | 1008.8 |
| 20260504233020 | 73 | 258 | 3.5 | 6.1 | 0.00 | 0.00 | 0.00 | 27 | 1008.7 |
| 20260504232023 | 73 | 301 | 0.9 | 2.6 | 0.00 | 0.00 | 0.00 | 27 | 1008.6 |
| 20260504231108 | 74 | 247 | 3.5 | 6.1 | 0.00 | 0.00 | 0.00 | 28 | 1008.6 |
| 20260504230054 | 74 | 64 | 6.1 | 8.7 | 0.00 | 0.00 | 0.00 | 28 | 1008.6 |
| 20260504225039 | 75 | 69 | 5.2 | 7.0 | 0.00 | 0.00 | 0.00 | 28 | 1008.6 |
| 20260504224023 | 78 | 62 | 7.0 | 11.3 | 0.00 | 0.00 | 0.00 | 25 | 1008.7 |
| 20260504223028 | 81 | 28 | 2.6 | 6.1 | 0.00 | 0.00 | 0.00 | 23 | 1008.7 |
| 20260504222033 | 82 | 243 | 3.5 | 6.1 | 0.00 | 0.00 | 0.00 | 23 | 1008.9 |
| 20260504221019 | 80 | 213 | 2.6 | 4.3 | 0.00 | 0.00 | 0.00 | 24 | 1008.7 |
| 20260504220024 | 77 | 260 | 5.2 | 7.0 | 0.00 | 0.00 | 0.00 | 25 | 1008.9 |
| 20260504215028 | 78 | 268 | 4.3 | 7.8 | 0.00 | 0.00 | 0.00 | 25 | 1009.0 |
| 20260504214015 | 76 | 267 | 7.8 | 10.4 | 0.00 | 0.00 | 0.00 | 27 | 1009.1 |
| 20260504213020 | 77 | 249 | 6.1 | 9.6 | 0.00 | 0.00 | 0.00 | 27 | 1009.1 |
| 20260504212025 | 79 | 244 | 5.2 | 7.8 | 0.00 | 0.00 | 0.00 | 30 | 1009.2 |
| 20260504211025 | 77 | 178 | 4.3 | 6.1 | 0.00 | 0.00 | 0.00 | 29 | 1009.3 |
| 20260504210018 | 76 | 144 | 4.3 | 7.0 | 0.00 | 0.00 | 0.00 | 35 | 1009.4 |
| 20260504205041 | 75 | 146 | 5.2 | 7.0 | 0.00 | 0.00 | 0.00 | 34 | 1009.4 |
| 20260504204020 | 75 | 137 | 5.2 | 7.0 | 0.00 | 0.00 | 0.00 | 32 | 1009.5 |
| 20260504203018 | 75 | 157 | 4.3 | 7.8 | 0.00 | 0.00 | 0.00 | 34 | 1009.6 |
| 20260504202017 | 76 | 134 | 6.1 | 7.0 | 0.00 | 0.00 | 0.00 | 34 | 1009.6 |
| 20260504201016 | 78 | 151 | 6.1 | 7.8 | 0.00 | 0.00 | 0.00 | 28 | 1009.6 |
| 20260504200026 | 80 | 156 | 5.2 | 7.8 | 0.00 | 0.00 | 0.00 | 26 | 1009.9 |
| 20260504195051 | 79 | 147 | 6.1 | 7.8 | 0.00 | 0.00 | 0.00 | 28 | 1010.0 |
| 20260504194018 | 79 | 141 | 6.1 | 7.8 | 0.00 | 0.00 | 0.00 | 27 | 1010.1 |
| 20260504193022 | 78 | 167 | 6.1 | 7.8 | 0.00 | 0.00 | 0.00 | 28 | 1010.2 |
| 20260504192027 | 78 | 143 | 6.1 | 8.7 | 0.00 | 0.00 | 0.00 | 28 | 1010.2 |
| 20260504191037 | 77 | 149 | 6.1 | 8.7 | 0.00 | 0.00 | 0.00 | 28 | 1010.4 |
| 20260504190018 | 78 | 146 | 5.2 | 7.0 | 0.00 | 0.00 | 0.00 | 28 | 1010.4 |
| 20260504185023 | 77 | 134 | 6.1 | 7.8 | 0.00 | 0.00 | 0.00 | 30 | 1010.8 |
| 20260504184048 | 76 | 120 | 7.0 | 8.7 | 0.00 | 0.00 | 0.00 | 29 | 1010.8 |
| 20260504183033 | 76 | 133 | 7.0 | 8.7 | 0.00 | 0.00 | 0.00 | 29 | 1010.8 |
| 20260504182019 | 75 | 113 | 7.0 | 9.6 | 0.00 | 0.00 | 0.00 | 29 | 1011.0 |
| 20260504181024 | 76 | 129 | 7.0 | 8.7 | 0.00 | 0.00 | 0.00 | 29 | 1011.1 |
| 20260504180030 | 76 | 131 | 6.1 | 7.8 | 0.00 | 0.00 | 0.00 | 28 | 1011.4 |
| 20260504175015 | 76 | 145 | 5.2 | 7.8 | 0.00 | 0.00 | 0.00 | 29 | 1011.5 |
| 20260504174020 | 75 | 113 | 7.0 | 8.7 | 0.00 | 0.00 | 0.00 | 29 | 1011.6 |
| 20260504173024 | 75 | 140 | 6.1 | 7.8 | 0.00 | 0.00 | 0.00 | 30 | 1011.7 |
| 20260504172029 | 76 | 138 | 4.3 | 6.1 | 0.00 | 0.00 | 0.00 | 32 | 1011.9 |
| 20260504171015 | 76 | 145 | 3.5 | 5.2 | 0.00 | 0.00 | 0.00 | 33 | 1011.9 |
| 20260504151018 | 68 | 118 | 3.5 | 5.2 | 0.00 | 0.00 | 0.00 | 42 | 1012.4 |
| 20260504141048 | 62 | 123 | 3.5 | 4.3 | 0.00 | 0.00 | 0.00 | 55 | 1012.4 |